[[{"header":{"parameterUnit":"m.s-1","parameterCategory":1,"la1":30.2991,"la2":30.254,"lo1":-89.0895,"lo2":-89.0444,"dy":0.0017,"dx":0.0017,"nx":28,"ny":28,"refTime":"2025-11-24T03:00:00:Z","depth":0,"parameterNumber":2,"parameterNumberName":"U-component_of_WINDS"},"data":[0,0,0,0,0,0,0,0,0,0,0,0,0,0,0,0,0,0,0,0,0,0,0,0,0,0,0,0,0,0,0,0,0,0,0,0,0,0,0,0,0,0,0,0,0,0,0,0,0,0,0,0,0,0,0,0,0,0,-2.1945,-2.1945,0,-2.1972,-2.1973,-2.1973,-2.1931,-2.193,-2.1928,-2.1927,-2.1953,-2.1955,-2.1957,0,0,0,0,0,0,0,0,0,0,0,0,0,-2.1855,-2.1857,-2.1945,-2.1945,-2.1946,-2.1972,-2.1973,-2.1973,-2.1931,-2.193,-2.1928,-2.1926,-2.1953,-2.1955,-2.1958,0,0,0,0,0,0,0,0,0,0,0,0,0,-2.1889,-2.1857,-2.1945,-2.1928,-2.1927,-2.1972,-2.1973,-2.1973,-2.1932,-2.193,-2.1927,-2.1925,-2.1952,-2.1955,-2.1958,-2.202,0,0,-2.1967,-2.1969,0,0,0,0,0,0,0,0,-2.1887,-2.1892,-2.193,-2.1929,-2.1928,-2.1946,-2.195,-2.1989,-2.1932,-2.193,-2.1927,-2.1924,-2.1953,-2.1955,-2.1965,-2.2021,-2.2023,-2.1968,-2.1969,-2.1971,-2.1972,0,0,0,0,0,0,0,-2.1885,-2.1891,-2.1956,-2.1931,-2.193,-2.1919,-2.1921,-2.1957,-2.1953,-2.193,-2.1927,-2.1931,-2.1952,-2.1962,-2.1966,-2.2023,-2.1967,-2.197,-2.1972,-2.1973,-2.2131,-2.2133,0,0,0,0,0,0,-2.1885,-2.1889,-2.1955,-2.1957,-2.1902,-2.1922,-2.1925,-2.1943,-2.1953,-2.1952,-2.1933,-2.1929,-2.1958,-2.1962,-2.1966,-2.204,-2.1971,-2.1974,-2.1975,-2.2128,-2.2131,-2.2134,0,0,0,0,0,0,-2.1883,-2.1891,-2.1954,-2.1922,-2.1929,-2.1926,-2.1946,-2.1944,-2.1955,-2.1955,-2.1953,-2.1945,-2.1957,-2.1962,-2.2007,-2.204,-2.1975,-2.1978,-2.2126,-2.2129,-2.2132,-2.2187,0,0,0,0,0,0,-2.1881,-2.1891,-2.1915,-2.1923,-2.1931,-2.1995,-2.1948,-2.1946,-2.1961,-2.1956,-2.1966,-2.1965,-2.1955,-2.2003,-2.201,-2.2043,-2.198,-2.2123,-2.2127,-2.2131,-2.2183,-2.2192,-2.2201,0,0,0,0,0,-2.1878,-2.1929,-2.1917,-2.1925,-2.1962,-2.1997,-2.2002,-2.199,-2.1964,-2.1988,-2.1987,-2.1965,-2.2035,-2.2008,-2.2016,-2.205,-2.2121,-2.2126,-2.2131,-2.2179,-2.219,-2.22,0,0,0,0,0,0,-2.1925,-2.193,-2.1916,-2.1972,-2.1984,-2.199,-2.202,-2.2003,-2.2022,-2.2017,-2.2001,-2.2003,-2.2052,-2.2055,-2.2025,-2.2111,-2.2073,-2.208,-2.2107,-2.2118,-2.2127,-2.2125,-2.1983,0,0,0,0,0,-2.1942,-2.1971,-2.1973,-2.2022,-2.2029,-2.2024,-2.2039,-2.2028,-2.204,-2.2045,-2.2048,-2.206,-2.2085,-2.2101,-2.2124,-2.2183,-2.2184,-2.221,-2.2219,-2.2226,-2.2233,-2.2264,-2.2275,-2.2151,-2.2151,-2.2151,0,0,-2.1977,-2.1984,-2.2003,-2.2032,-2.2041,-2.207,-2.2028,-2.2062,-2.2083,-2.205,-2.2093,-2.2095,-2.2108,-2.216,-2.2183,-2.2164,-2.2267,-2.2233,-2.2239,-2.2242,-2.227,-2.2282,-2.2293,-2.2155,-2.2154,-2.2153,0,0,-2.2057,-2.2065,-2.2106,-2.2116,-2.2129,-2.2125,-2.2135,-2.2143,-2.2143,-2.2186,-2.2161,-2.2186,-2.2229,-2.2239,-2.2249,-2.2332,-2.2312,-2.2339,-2.2387,-2.2417,-2.2427,-2.2435,-2.2465,-2.2475,-2.2346,-2.2346,-2.2346,0,-2.2099,-2.2144,-2.213,-2.2165,-2.2178,-2.215,-2.2191,-2.22,-2.222,-2.223,-2.2209,-2.2262,-2.2268,-2.2321,-2.2341,-2.2351,-2.2361,-2.2339,-2.2426,-2.2435,-2.2443,-2.247,-2.2482,-2.2349,-2.2349,-2.2348,-2.2348,0,-2.2195,-2.2226,-2.2258,-2.2278,-2.2295,-2.2333,-2.2324,-2.2342,-2.233,-2.2328,-2.2371,-2.2378,-2.2401,-2.2412,-2.2401,-2.2464,-2.2452,-2.2429,-2.2392,-2.2458,-2.2484,-2.2494,-2.2354,-2.2353,-2.2352,-2.2351,0,0,-2.2306,-2.2318,-2.233,-2.2339,-2.2351,-2.2374,-2.241,-2.2433,-2.2449,-2.2463,-2.2493,-2.253,-2.2508,-2.252,-2.2509,-2.2535,-2.26,-2.2508,-2.2508,-2.2525,-2.267,-2.2688,-2.27,-2.2586,-2.2588,-2.259,-2.2669,0,-2.2386,-2.2449,-2.2437,-2.2499,-2.2527,-2.25,-2.2531,-2.2541,-2.254,-2.2563,-2.256,-2.2587,-2.2556,-2.2563,-2.2588,-2.2587,-2.2629,-2.2581,-2.2613,-2.2615,-2.2612,-2.2714,-2.2733,-2.2807,-2.2679,-2.268,-2.2682,0,-2.2488,-2.2506,-2.2571,-2.2578,-2.2589,-2.2618,-2.2637,-2.266,-2.267,-2.2667,-2.268,-2.2664,-2.2699,-2.2661,-2.2708,-2.2676,-2.2688,-2.269,-2.2692,-2.2695,-2.2653,-2.272,-2.283,-2.2842,-2.2697,-2.2696,-2.2695,0,-2.2563,-2.2603,-2.2647,-2.2655,-2.2665,-2.2685,-2.269,-2.2698,-2.2713,-2.273,-2.2739,-2.2759,-2.2771,-2.2787,-2.2776,-2.2749,-2.2826,-2.2786,-2.2824,-2.2824,-2.2842,-2.2841,-2.2957,-2.2849,-2.2849,-2.2849,-2.2849,0,-2.2653,-2.2694,-2.2681,-2.2708,-2.2752,-2.2738,-2.2782,-2.2783,-2.279,-2.2817,-2.2794,-2.2818,-2.2803,-2.2826,-2.2818,-2.2858,-2.2864,-2.2862,-2.2859,-2.2864,-2.2865,-2.2873,-2.2867,-2.2852,-2.2851,-2.2851,-2.285,0,-2.2745,-2.2738,-2.2784,-2.2789,-2.2791,-2.2823,-2.2827,-2.2852,-2.2848,-2.2881,-2.2888,-2.2882,-2.2908,-2.2899,-2.2927,-2.2921,-2.2973,-2.2964,-2.297,-2.2968,-2.3006,-2.3003,-2.3131,-2.3147,-2.3029,-2.303,-2.3031,0,-2.2804,-2.2834,-2.2842,-2.2858,-2.2865,-2.2891,-2.2905,-2.2891,-2.2907,-2.2921,-2.2944,-2.2969,-2.2987,-2.303,-2.3028,-2.3049,-2.304,-2.3084,-2.3043,-2.3047,-2.3041,-2.304,-2.3042,-2.3092,-2.3093,-2.3094,-2.3095,0,-2.2908,-2.2903,-2.2925,-2.2946,-2.2964,-2.298,-2.2994,-2.3008,-2.2994,-2.3013,-2.304,-2.3055,-2.3083,-2.3107,-2.3126,-2.313,-2.3111,-2.3108,-2.3118,-2.3124,-2.3126,-2.3126,-2.2993,-2.3105,-2.3104,-2.3104,-2.3103,-2.3103,-2.2985,-2.3011,-2.3021,-2.3046,-2.3055,-2.3068,-2.3091,-2.309,-2.3112,-2.3135,-2.3125,-2.3156,-2.3164,-2.3187,-2.3194,-2.3217,-2.32,-2.3215,-2.3218,-2.3222,-2.3227,-2.3122,-2.322,-2.322,-2.322,-2.322,-2.3219,0,-2.3089,-2.3094,-2.3117,-2.3137,-2.3156,-2.3136,-2.315,-2.3168,-2.3195,-2.3205,-2.3224,-2.3254,-2.3278,-2.3277,-2.3298,-2.3317,-2.3308,-2.3323,-2.3322,-2.3323,-2.3241,-2.3231,-2.3329,-2.3329,-2.3329,-2.3329,-2.3329,-2.3329,-2.3145,-2.3188,-2.3184,-2.323,-2.3234,-2.3264,-2.3274,-2.3285,-2.3293,-2.3328,-2.3348,-2.3347,-2.3352,-2.3374,-2.3394,-2.3393,-2.3402,-2.342,-2.3416,-2.3339,-2.3329,-2.3318,-2.3308,-2.3422,-2.3422,-2.3495,-2.3496,-2.3497]},{"header":{"parameterUnit":"m.s-1","parameterCategory":1,"la1":30.2991,"la2":30.254,"lo1":-89.0895,"lo2":-89.0444,"dy":0.0017,"dx":0.0017,"nx":28,"ny":28,"refTime":"2025-11-24T03:00:00:Z","depth":0,"parameterNumber":3,"parameterNumberName":"V-component_of_WINDS"},"data":[0,0,0,0,0,0,0,0,0,0,0,0,0,0,0,0,0,0,0,0,0,0,0,0,0,0,0,0,0,0,0,0,0,0,0,0,0,0,0,0,0,0,0,0,0,0,0,0,0,0,0,0,0,0,0,0,0,0,-2.7323,-2.7323,0,-2.7344,-2.7345,-2.7345,-2.7306,-2.7305,-2.7304,-2.7303,-2.7324,-2.7325,-2.7327,0,0,0,0,0,0,0,0,0,0,0,0,0,-2.7247,-2.7248,-2.7323,-2.7323,-2.7323,-2.7344,-2.7345,-2.7345,-2.7307,-2.7305,-2.7304,-2.7302,-2.7323,-2.7325,-2.7327,0,0,0,0,0,0,0,0,0,0,0,0,0,-2.7275,-2.7249,-2.7323,-2.7307,-2.7306,-2.7344,-2.7345,-2.7345,-2.7307,-2.7305,-2.7303,-2.7301,-2.7322,-2.7325,-2.7327,-2.7382,0,0,-2.7335,-2.7337,0,0,0,0,0,0,0,0,-2.7274,-2.7278,-2.7309,-2.7308,-2.7307,-2.7321,-2.7325,-2.7357,-2.7307,-2.7306,-2.7303,-2.73,-2.7324,-2.7326,-2.7335,-2.7383,-2.7384,-2.7336,-2.7337,-2.7338,-2.7339,0,0,0,0,0,0,0,-2.7272,-2.7277,-2.7331,-2.7309,-2.7308,-2.7298,-2.73,-2.7331,-2.7326,-2.7306,-2.7304,-2.7307,-2.7323,-2.7332,-2.7335,-2.7384,-2.7336,-2.7338,-2.734,-2.7341,-2.7478,-2.748,0,0,0,0,0,0,-2.7272,-2.7275,-2.7331,-2.7332,-2.7285,-2.7301,-2.7303,-2.7318,-2.7325,-2.7325,-2.7308,-2.7305,-2.7329,-2.7332,-2.7335,-2.74,-2.7338,-2.7341,-2.7342,-2.7476,-2.7478,-2.7481,0,0,0,0,0,0,-2.727,-2.7277,-2.733,-2.7303,-2.7309,-2.7304,-2.7322,-2.732,-2.7329,-2.7327,-2.7326,-2.7319,-2.7327,-2.7332,-2.7371,-2.74,-2.7342,-2.7344,-2.7474,-2.7477,-2.748,-2.7529,0,0,0,0,0,0,-2.7268,-2.7277,-2.7298,-2.7304,-2.7311,-2.7365,-2.7323,-2.7321,-2.7334,-2.7329,-2.7336,-2.7336,-2.7326,-2.7367,-2.7373,-2.7402,-2.7347,-2.7471,-2.7475,-2.7479,-2.7525,-2.7533,-2.7541,0,0,0,0,0,-2.7266,-2.7311,-2.73,-2.7306,-2.7337,-2.7367,-2.7371,-2.7359,-2.7336,-2.7357,-2.7356,-2.7335,-2.7396,-2.7371,-2.7378,-2.7408,-2.7469,-2.7474,-2.7478,-2.7521,-2.7532,-2.7541,0,0,0,0,0,0,-2.7309,-2.7312,-2.7299,-2.7347,-2.7357,-2.7361,-2.7387,-2.7371,-2.7388,-2.7383,-2.7367,-2.7369,-2.7411,-2.7414,-2.7387,-2.7461,-2.7428,-2.7435,-2.7458,-2.7468,-2.7476,-2.7475,-2.7349,0,0,0,0,0,-2.7324,-2.7349,-2.735,-2.7392,-2.7398,-2.7392,-2.7404,-2.7395,-2.7404,-2.7408,-2.741,-2.7419,-2.744,-2.7454,-2.7474,-2.7525,-2.7525,-2.7549,-2.7557,-2.7563,-2.7569,-2.7595,-2.7606,-2.7496,-2.7496,-2.7496,0,0,-2.7356,-2.736,-2.7377,-2.7401,-2.7408,-2.7433,-2.7396,-2.7424,-2.7443,-2.7412,-2.7449,-2.7451,-2.746,-2.7505,-2.7525,-2.7509,-2.7599,-2.7569,-2.7575,-2.7577,-2.7601,-2.7612,-2.7621,-2.7499,-2.7499,-2.7498,0,0,-2.7426,-2.7432,-2.7468,-2.7476,-2.7486,-2.7482,-2.749,-2.7496,-2.7496,-2.7533,-2.751,-2.7532,-2.7568,-2.7576,-2.7585,-2.7657,-2.7639,-2.7664,-2.7706,-2.7732,-2.774,-2.7748,-2.7774,-2.7783,-2.7669,-2.7669,-2.767,0,-2.7464,-2.7502,-2.7489,-2.7519,-2.753,-2.7504,-2.754,-2.7547,-2.7563,-2.7571,-2.7553,-2.7598,-2.7602,-2.7649,-2.7666,-2.7674,-2.7683,-2.7663,-2.774,-2.7748,-2.7755,-2.7779,-2.7789,-2.7672,-2.7672,-2.7672,-2.7671,0,-2.7548,-2.7574,-2.7602,-2.7619,-2.7633,-2.7666,-2.7657,-2.7672,-2.7661,-2.7658,-2.7696,-2.77,-2.772,-2.773,-2.7719,-2.7774,-2.7764,-2.7743,-2.7709,-2.7768,-2.7791,-2.78,-2.7677,-2.7676,-2.7675,-2.7674,0,0,-2.7647,-2.7655,-2.7665,-2.7672,-2.7682,-2.7702,-2.7733,-2.7752,-2.7766,-2.7777,-2.7803,-2.7834,-2.7815,-2.7824,-2.7814,-2.7837,-2.7894,-2.7813,-2.7813,-2.7828,-2.7955,-2.797,-2.7981,-2.7882,-2.7883,-2.7885,-2.7954,0,-2.7717,-2.7771,-2.776,-2.7813,-2.7837,-2.7812,-2.7839,-2.7847,-2.7845,-2.7864,-2.7862,-2.7884,-2.7857,-2.7863,-2.7884,-2.7882,-2.7919,-2.7877,-2.7905,-2.7906,-2.7903,-2.7993,-2.801,-2.8075,-2.7962,-2.7964,-2.7965,0,-2.7806,-2.7821,-2.7877,-2.7881,-2.7891,-2.7916,-2.7932,-2.7951,-2.796,-2.7956,-2.7967,-2.7952,-2.7982,-2.7948,-2.799,-2.7961,-2.7972,-2.7973,-2.7975,-2.7977,-2.7939,-2.7998,-2.8095,-2.8105,-2.7979,-2.7978,-2.7977,0,-2.7872,-2.7906,-2.7944,-2.795,-2.7957,-2.7975,-2.7978,-2.7985,-2.7997,-2.8011,-2.8019,-2.8036,-2.8046,-2.8059,-2.8049,-2.8025,-2.8092,-2.8057,-2.809,-2.809,-2.8105,-2.8104,-2.8206,-2.8112,-2.8112,-2.8111,-2.8111,0,-2.7951,-2.7986,-2.7974,-2.7997,-2.8035,-2.8021,-2.8059,-2.8059,-2.8065,-2.8088,-2.8067,-2.8088,-2.8073,-2.8093,-2.8086,-2.8121,-2.8125,-2.8123,-2.8121,-2.8125,-2.8125,-2.8132,-2.8127,-2.8114,-2.8113,-2.8113,-2.8112,0,-2.8032,-2.8025,-2.8064,-2.8067,-2.8069,-2.8097,-2.8099,-2.812,-2.8116,-2.8145,-2.815,-2.8144,-2.8166,-2.8158,-2.8181,-2.8176,-2.8221,-2.8212,-2.8218,-2.8216,-2.8249,-2.8246,-2.8359,-2.8372,-2.8269,-2.827,-2.8271,0,-2.8083,-2.8109,-2.8115,-2.8129,-2.8134,-2.8156,-2.8168,-2.8155,-2.8168,-2.818,-2.8199,-2.822,-2.8236,-2.8272,-2.827,-2.8287,-2.8279,-2.8317,-2.8282,-2.8285,-2.828,-2.8278,-2.8281,-2.8324,-2.8326,-2.8327,-2.8327,0,-2.8174,-2.8169,-2.8188,-2.8206,-2.8221,-2.8234,-2.8245,-2.8257,-2.8244,-2.826,-2.8283,-2.8295,-2.8319,-2.834,-2.8355,-2.8358,-2.8341,-2.8338,-2.8347,-2.8352,-2.8354,-2.8353,-2.8238,-2.8336,-2.8335,-2.8335,-2.8334,-2.8334,-2.8242,-2.8264,-2.8271,-2.8292,-2.8299,-2.831,-2.833,-2.8329,-2.8347,-2.8366,-2.8357,-2.8383,-2.839,-2.8409,-2.8414,-2.8434,-2.8419,-2.8432,-2.8435,-2.8438,-2.8443,-2.8351,-2.8437,-2.8437,-2.8436,-2.8436,-2.8436,0,-2.8332,-2.8335,-2.8355,-2.8371,-2.8388,-2.837,-2.8381,-2.8396,-2.8419,-2.8428,-2.8443,-2.8469,-2.8489,-2.8487,-2.8505,-2.8521,-2.8514,-2.8526,-2.8525,-2.8526,-2.8455,-2.8446,-2.8532,-2.8532,-2.8532,-2.8532,-2.8532,-2.8532,-2.8381,-2.8417,-2.8413,-2.8452,-2.8455,-2.8481,-2.8489,-2.8498,-2.8505,-2.8534,-2.8551,-2.855,-2.8554,-2.8572,-2.8589,-2.8588,-2.8595,-2.8611,-2.8607,-2.8541,-2.8531,-2.8522,-2.8513,-2.8613,-2.8613,-2.8676,-2.8677,-2.8678]}]]